Вернуться в каталог

NOAA 16 DEB

АктивенSSO
NORAD 41252·DEBRIS·🇺🇸 United States

Запущен Sep 21, 2000 с Vandenberg Space Force Base

Loading…

Ближайшие Пролёты (ближайшие 24 часа)

TLE

СвежийSource: Space-Track

Эпоха: Sep 14, 2026, 09:57 UTC

1 41252U 00055FC  26257.41468706  .00002750  00000-0  12732-2 0  9993
2 41252  98.9222 325.3239 0049896  90.4521 270.2374 14.20988178552467

Отслеживайте NOAA 16 DEB в реальном времени с AllMySat

Download on the App Store